Regional Weather Roundup
Issued by NWS

Home | Current Version | Previous Version | Graphics & Text | Print | Product List | Glossary On
Versions: 1 2 3 4 5 6 7 8 9 10 11 12 13 14 15 16 17 18 19 20 21 22 23 24 25 26 27 28 29 30 31 32 33 34 35 36 37 38 39 40 41 42 43 44 45 46 47 48 49 50
000
ASUS43 KIND 010009
RWRIN

WEATHER ROUNDUP FOR INDIANA
NATIONAL WEATHER SERVICE INDIANAPOLIS IN
800 PM EDT MON AUG 31 2015

NOTE: "FAIR" INDICATES FEW OR NO CLOUDS BELOW 12,000 FEET WITH NO
SIGNIFICANT WEATHER AND/OR OBSTRUCTIONS TO VISIBILITY.

* - STATION DOES NOT REPORT WEATHER SUCH AS PRECIPITATION OR FOG.

+ - STATION NOT QUALITY CONTROLLED BY THE NATIONAL WEATHER SERVICE.
    USE DATA WITH CAUTION...ESPECIALLY DEWPOINT AND RELATIVE
    HUMIDITY OBSERVATIONS.

INZ001>003-010>013-019-020-010100-
NORTHWEST INDIANA

CITY           SKY/WX    TMP DP  RH WIND       PRES   REMARKS
GARY /AIRPORT/ CLEAR     81  70  69 CALM      30.02S
KNOX *+        CLEAR     81  68  65 CALM      30.02S
LA PORTE +     CLEAR     80  74  83 N3        30.04S
6HR MIN TEMP:  80; 6HR MAX TEMP:  86;

MICHIGAN CITY+ CLEAR     77  70  78 CALM      30.03F
MONTICELLO +   CLEAR     81  71  70 SW5       30.03S
6HR MIN TEMP:  81; 6HR MAX TEMP:  87;

RENSSELAER +   CLEAR     79  73  83 CALM      30.03S
VALPARAISO     CLEAR     81  71  71 CALM      30.03S
6HR MIN TEMP:  81; 6HR MAX TEMP:  86;


$$

LMZ046-743>745-010100-
SOUTHERN LAKE MICHIGAN

STATION/POSITION TIME  TEMP    WIND        PRES    WAVE
                       AIR SEA DIR/SP/G            HT
                 (UTC) (F)     (DEG/KT/KT) (MB)    (FT)
BURNS HARBOR     2300   75      80/  9/ 10 1016.9S
MICHIGAN CITY    2300   74      30/  9/ 10   N/A
5NW MICH CITY    0000   74 73   80/  8/ 10   N/A     1

$$

INZ004-005-014>016-021>024-010100-
NORTH CENTRAL INDIANA

CITY           SKY/WX    TMP DP  RH WIND       PRES   REMARKS
ELKHART        CLEAR     81  68  65 CALM      30.05S
GOSHEN         PTCLDY    80  69  69 NW5       30.04S
6HR MIN TEMP:  80; 6HR MAX TEMP:  85;

LOGANSPORT +   CLEAR     79  63  57 SW5       30.05S
PERU/GRISSOM   PTCLDY    81  70  69 SW3       30.04R
6HR MIN TEMP:  80; 6HR MAX TEMP:  87;

ROCHESTER +    CLEAR     82  70  65 SW3       30.05S
SOUTH BEND     CLEAR     77  71  82 N6        30.04S
6HR MIN TEMP:  77; 6HR MAX TEMP:  84;

WARSAW +       PTCLDY    79  70  73 CALM      30.05R

$$

INZ006>009-017-018-025>027-010100-
NORTHEAST INDIANA

CITY           SKY/WX    TMP DP  RH WIND       PRES   REMARKS
ANGOLA *+      CLEAR     79  73  83 CALM      30.05S
AUBURN +       CLEAR     77  70  78 CALM      30.05S
FORT WAYNE     PTCLDY    80  70  71 SW5       30.05S
6HR MIN TEMP:  80; 6HR MAX TEMP:  87;

HUNTINGTON +   CLEAR     80  67  64 CALM      30.04F
6HR MIN TEMP:  80; 6HR MAX TEMP:  86;


$$

INZ028-029-035-036-043>045-051>053-010100-
WEST CENTRAL INDIANA

CITY           SKY/WX    TMP DP  RH WIND       PRES   REMARKS
CRAWFORDSVL +  CLEAR     77  66  68 S3        30.06S
6HR MIN TEMP:  77; 6HR MAX TEMP:  85;

GREENCASTLE +  PTCLDY    77  64  65 S3        30.07S
LAFAYETTE      CLEAR     82  68  62 SW3       30.03S
6HR MIN TEMP:  82; 6HR MAX TEMP:  88;

TERRE HAUTE    PTCLDY    82  67  60 S6        30.05S
6HR MIN TEMP:  82; 6HR MAX TEMP:  88;


$$

INZ030>032-037>040-046>048-054>057-064-065-010100-
CENTRAL INDIANA

CITY           SKY/WX    TMP DP  RH WIND       PRES   REMARKS
FRANKFORT +    CLEAR     79  70  74 S3        30.07S
6HR MIN TEMP:  79; 6HR MAX TEMP:  88;

GREENWOOD *+   CLEAR     79  64  61 SW3       30.07S
INDIANAPOLIS   PTCLDY    80  67  64 S9        30.06R
6HR MIN TEMP:  80; 6HR MAX TEMP:  87;

-EAGLE CREEK   CLEAR     81  68  64 SW6       30.05S
6HR MIN TEMP:  81; 6HR MAX TEMP:  86;

KOKOMO *+      CLEAR     82  66  57 W5        30.05R
6HR MIN TEMP:  82; 6HR MAX TEMP:  88;

MARION +       PTCLDY    81  59  47 SW3       30.06S HAZE
MT COMFORT *+  PTCLDY    79  63  57 SW6       30.07S
SHELBYVILLE    CLEAR     81  68  64 SW6       30.05S
6HR MIN TEMP:  81; 6HR MAX TEMP:  88;

ZIONSVILLE +   PTCLDY    82  67  60 SW3       30.07S
6HR MIN TEMP:  82; 6HR MAX TEMP:  87;


$$

INZ033-034-041-042-049-050-058-059-010100-
EAST CENTRAL INDIANA

CITY           SKY/WX    TMP DP  RH WIND       PRES   REMARKS
MUNCIE         CLOUDY    76  63  64 NW12      30.06S
6HR MIN TEMP:  76; 6HR MAX TEMP:  85;


$$

INZ060-061-067>069-081>083-085>088-010100-
SOUTHWEST INDIANA

CITY           SKY/WX    TMP DP  RH WIND       PRES   REMARKS
EVANSVILLE     PTCLDY    83  67  58 MISG      30.06S
6HR MIN TEMP:  83; 6HR MAX TEMP:  88;

HUNTINGBURG *+ CLEAR     81  66  61 S3        30.07S
6HR MIN TEMP:  81; 6HR MAX TEMP:  88;

WASHINGTON +   CLEAR     81  64  57 S3        30.05S
6HR MIN TEMP:  81; 6HR MAX TEMP:  86;


$$

INZ062-063-066-070>080-084-089>092-010100-
SOUTH CENTRAL AND SOUTHEAST INDIANA

CITY           SKY/WX    TMP DP  RH WIND       PRES   REMARKS
BLOOMINGTON    CLEAR     78  71  79 CALM      30.07S
6HR MIN TEMP:  78; 6HR MAX TEMP:  85;

MADISON *+     CLEAR     77  70  78 CALM      30.09S
NORTH VERNON + CLEAR     81  68  65 CALM      30.07F
SEYMOUR +      CLEAR     81  68  65 CALM      30.06S

$$



USA.gov is the U.S. government's official web portal to all federal, state and local government web resources and services.